Starlink 31083

operational
NORAD ID: 58670 Int'l Des: 2023-211 Owner: SPXS Country: US Constellation: starlink
LEOCIRCULAR

Starlink 31083について

説明を読み込み中...

リアルタイム位置

3D地球を読み込み中...

次回通過

高度履歴

Altitude vs Time

uPlot chart will show altitude changes over time

軌道要素

1 58670U 23211D 25308.04924091 .00001583 00000-0 67024-4 0 9992
2 58670 42.9981 74.4781 0000841 279.5220 80.5537 15.27582489103252
Epoch: Nov 4, 2025 • Age: 10 hours

現在のステータス

高度 483.2 km
速度 7.63 km/s
衛星直下点 24.28°N, 11.09°E
打ち上げ日 Dec 29, 2023
運用期間 1.8 years
タイプ internet

技術仕様

分類 Payload
質量 730.00 kg
乾燥質量 700.00 kg
総質量 730.00 kg
長さ 0.30 m
直径 4.10 m
スパン 29.00 m
形状 Box + pan
製造者 SPXS
バスタイプ Starlink V2M
フェーズステータス In Orbit
所有者/国 SPXS/US

大規模コンステレーション

Loading constellations...